This is the latest recevied weather packets stored in our database for station/object KC3WWU. If no packets are shown the sender has not sent any weather packets the latest 10 day(s).
| Time | Temp. | Humidity | Pressure | Rain* | Wind** | Luminosity | Snow |
|---|---|---|---|---|---|---|---|
| 1778100182 | 10° C | 95% | 1007.2 hPa | 0 mm | - | 32 W/m² | - |
| 1778099880 | 10° C | 97% | 1007.5 hPa | 0 mm | - | 33 W/m² | - |
| 1778099577 | 10° C | 97% | 1007.2 hPa | 0 mm | - | 32 W/m² | - |
| 1778099274 | 10° C | 97% | 1007.4 hPa | 0 mm | - | 33 W/m² | - |
| 1778098971 | 10° C | 97% | 1007.3 hPa | 0 mm | - | 41 W/m² | - |
| 1778098667 | 10° C | 98% | 1007.4 hPa | 0 mm | - | 40 W/m² | - |
| 1778098364 | 10° C | 98% | 1007.7 hPa | 0 mm | - | 54 W/m² | - |
| 1778098061 | 10° C | 98% | 1007.5 hPa | 0 mm | - | 63 W/m² | - |
| 1778097757 | 10° C | 99% | 1007.7 hPa | 0 mm | - | 64 W/m² | - |
| 1778097454 | 10° C | 99% | 1007.5 hPa | 0 mm | - | 52 W/m² | - |
| 1778097150 | 10° C | 99% | 1007.5 hPa | 0 mm | - | 30 W/m² | - |
| 1778096848 | 10° C | 99% | 1007.3 hPa | 0 mm | - | 39 W/m² | - |
| 1778096544 | 10° C | 99% | 1007.4 hPa | 0 mm | - | 41 W/m² | - |
| 1778096242 | 10° C | 99% | 1007.6 hPa | 0 mm | - | 51 W/m² | - |
| 1778095939 | 10° C | 99% | 1007.1 hPa | 0 mm | - | 53 W/m² | - |
| 1778095635 | 10° C | 99% | 1007.3 hPa | 0 mm | - | 54 W/m² | - |
| 1778095332 | 10° C | 99% | 1007.2 hPa | 0 mm | - | 50 W/m² | - |
| 1778095023 | 10° C | 99% | 1007.3 hPa | 0 mm | - | 50 W/m² | - |
| 1778094719 | 10° C | 99% | 1007.2 hPa | 0 mm | - | 51 W/m² | - |
| 1778094417 | 10° C | 99% | 1007 hPa | 0 mm | - | 63 W/m² | - |
| 1778094113 | 10° C | 99% | 1007 hPa | 0 mm | - | 72 W/m² | - |
| 1778093810 | 10° C | 99% | 1007.1 hPa | 0 mm | - | 69 W/m² | - |
| 1778093506 | 10° C | 99% | 1007.1 hPa | 0 mm | - | 51 W/m² | - |
| 1778093204 | 10° C | 99% | 1006.9 hPa | 0 mm | - | 60 W/m² | - |
| 1778092901 | 10° C | 99% | 1007 hPa | 0 mm | - | 78 W/m² | - |
* Rain latest hour (hover to see other rain measurements)
** Current wind speed in m/s (hover to see current wind gust speed)